TimeCDT,TemperatureF,Dew PointF,Humidity,Sea Level PressureIn,VisibilityMPH,Wind Direction,Wind SpeedMPH,Gust SpeedMPH,PrecipitationIn,Events,Conditions,WindDirDegrees,DateUTC
12:52 AM,79.0,62.1,56,29.88,10.0,SSW,5.8,-,N/A,,Clear,210,2013-09-10 05:52:00
1:52 AM,77.0,61.0,58,29.89,10.0,SSW,4.6,-,N/A,,Clear,210,2013-09-10 06:52:00
2:52 AM,75.0,61.0,62,29.91,10.0,SSW,4.6,-,N/A,,Clear,210,2013-09-10 07:52:00
3:52 AM,73.0,61.0,66,29.92,10.0,SW,3.5,-,N/A,,Clear,220,2013-09-10 08:52:00
4:52 AM,73.0,62.1,68,29.93,10.0,SSW,4.6,-,N/A,,Clear,210,2013-09-10 09:52:00
5:52 AM,72.0,61.0,68,29.94,10.0,Calm,Calm,-,N/A,,Clear,0,2013-09-10 10:52:00
6:52 AM,71.1,62.1,73,29.96,10.0,Calm,Calm,-,N/A,,Clear,0,2013-09-10 11:52:00
7:52 AM,73.9,63.0,68,29.97,10.0,SSW,4.6,-,N/A,,Clear,200,2013-09-10 12:52:00
8:52 AM,79.0,64.0,60,29.98,10.0,SSW,8.1,-,N/A,,Clear,210,2013-09-10 13:52:00
9:52 AM,84.9,64.0,49,29.98,10.0,SW,10.4,-,N/A,,Clear,220,2013-09-10 14:52:00
10:52 AM,90.0,63.0,40,29.98,10.0,SW,12.7,19.6,N/A,,Clear,230,2013-09-10 15:52:00
11:52 AM,93.0,63.0,37,29.97,10.0,SW,16.1,21.9,N/A,,Clear,220,2013-09-10 16:52:00
12:52 PM,95.0,61.0,32,29.96,10.0,SW,16.1,24.2,N/A,,Clear,220,2013-09-10 17:52:00
1:52 PM,97.0,62.1,31,29.95,10.0,WSW,16.1,24.2,N/A,,Clear,240,2013-09-10 18:52:00
2:52 PM,96.1,60.1,30,29.94,10.0,SW,10.4,23.0,N/A,,Clear,230,2013-09-10 19:52:00
3:52 PM,98.1,60.1,28,29.92,10.0,SW,12.7,21.9,N/A,,Clear,220,2013-09-10 20:52:00
4:52 PM,97.0,60.1,29,29.91,10.0,SW,13.8,-,N/A,,Clear,230,2013-09-10 21:52:00
5:52 PM,93.9,61.0,33,29.91,10.0,SW,9.2,-,N/A,,Clear,230,2013-09-10 22:52:00
6:52 PM,91.0,62.1,38,29.92,10.0,SSW,5.8,-,N/A,,Clear,210,2013-09-10 23:52:00
7:52 PM,87.1,63.0,44,29.94,10.0,SSW,5.8,-,N/A,,Clear,200,2013-09-11 00:52:00
8:52 PM,84.0,63.0,49,29.96,10.0,SSW,6.9,-,N/A,,Clear,200,2013-09-11 01:52:00
9:52 PM,82.0,63.0,52,29.98,10.0,SSW,5.8,-,N/A,,Clear,200,2013-09-11 02:52:00
10:52 PM,80.1,63.0,56,29.99,10.0,West,5.8,-,N/A,,Clear,280,2013-09-11 03:52:00
11:52 PM,80.1,63.0,56,29.99,10.0,WSW,6.9,-,N/A,,Clear,240,2013-09-11 04:52:00